Location: Newark
(43.6583°N, 1.6617°E)
Time: 18:09:12
(UTC+00:00)

Tiros 1 - Pass Details

Date: 02 September 2019
Orbit: 630 x 664 km, 48.4° (Epoch: 22 September)

Event Time Altitude Azimuth Distance (km) Brightness Sun altitude
Rises 23:21:35 0° 289° (WNW) 2,919 10.8 -38.1°
Enters shadow 23:21:50 - 289° (WNW) 2,820 10.8 -38.1°
Reaches altitude 10° 23:23:57 10° 294° (WNW) 2,010 - -38.2°
Maximum altitude 23:28:28 54° 12° (NNE) 771 - -38.3°
Drops below altitude 10° 23:33:01 10° 90° (E) 2,015 - -38.4°
Sets 23:35:24 0° 95° (E) 2,926 - -38.5°
